Regional Weather Roundup
Issued by NWS Albany, NY

Home | Current Version | Previous Version | Graphics & Text | Print | Product List | Glossary On
Versions: 1 2 3 4 5 6 7 8 9 10 11 12 13 14 15 16 17 18 19 20 21 22 23 24 25 26 27 28 29 30 31 32 33 34 35 36 37 38 39 40 41 42 43 44 45 46 47 48 49 50
000
ASUS41 KALY 281410
RWRALY

NEW YORK STATE HOURLY WEATHER ROUNDUP
NATIONAL WEATHER SERVICE ALBANY NY
900 AM EST SAT FEB 28 2015

NOTE: "FAIR" INDICATES FEW OR NO CLOUDS BELOW 12,000 FEET WITH NO
SIGNIFICANT WEATHER AND/OR NO OBSTRUCTIONS TO VISIBILITY.

NYZ032-033-038>043-046>054-057>066-NYZ062>081-281500-
EAST


CITY           SKY/WX    TMP DP  RH WIND       PRES   REMARKS
ALBANY         SUNNY     11  -1  58 W8        30.80R WCI  -1
GLENS FALLS    SUNNY      4  -2  76 VRB3      30.77R
POUGHKEEPSIE   SUNNY     10   0  63 CALM      30.82R
NEWBURGH       SUNNY      9   0  66 VRB3      30.79R
MONTGOMERY     SUNNY      8  -5  55 CALM      30.79R
WHITE PLAINS   SUNNY     13  -1  54 NW10      30.76R WCI   0
ISLIP          MOSUNNY   18   3  52 N13G23    30.78R WCI   5
NEW YORK CITY  MOSUNNY   19  -1  41 VRB3      30.82R
CENTRAL PARK   SUNNY     17  -2  43 N5        30.83R WCI  10
$$

NYZ005>009-017-018-044>046-055-056-281500-
CENTRAL


CITY           SKY/WX    TMP DP  RH WIND       PRES   REMARKS
FULTON         SUNNY      7  -2  66 S3        30.77R
SYRACUSE       CLOUDY    -2  -2  99 CALM      30.78R
ROME           PTSUNNY   -1  -3  91 CALM      30.81R
ELMIRA         SUNNY     -2  -8  76 CALM      30.78R
BINGHAMTON     SUNNY      2  -6  69 W6        30.68R WCI  -9
MONTICELLO     SUNNY      5  -2  72 W6        30.70R WCI  -6
$$

NYZ026>034-041>043-281500-
NORTH


CITY           SKY/WX    TMP DP  RH WIND       PRES   REMARKS
WATERTOWN      PTSUNNY   12   4  70 S7        30.76R WCI   1
FORT DRUM      NOT AVBL
MASSENA        SUNNY      9  -2  61 SW12      30.75R WCI  -6
SARANAC LAKE   CLOUDY     3  -1  83 SW9       30.59R WCI -12
PLATTSBURGH    SUNNY     14   0  53 SW9       30.74R WCI   2
$$

NYZ001>004-010>016-019>021-281500-
WEST


CITY           SKY/WX    TMP DP  RH WIND       PRES   REMARKS
NIAGARA FALLS  MOSUNNY    5  -1  76 SW13      30.76R WCI -12
BUFFALO        MOSUNNY    9  -2  61 SW15      30.76R WCI  -8
DUNKIRK        MOSUNNY    8  -3  61 SW8       30.78R WCI  -4
JAMESTOWN      MOSUNNY    0   0 100 S3        30.66R
WELLSVILLE     SUNNY      4  -5  66 CALM      30.64R
ROCHESTER      SUNNY      4  -5  66 SW10      30.77R WCI -11
PENN YAN       SUNNY      4  -5  66 SW10      30.74R WCI -11
$$

             KEY
       WCI = WIND CHILL INDEX
       VSB = VISIBILITY
       HX  = HEAT INDEX
$$


USA.gov is the U.S. government's official web portal to all federal, state and local government web resources and services.